7 * 24
多渠道服务支持
BALKAN-2(NORAD编号69024)是保加利亚BALKAN观测星座的第二颗小卫星,属于哥白尼计划贡献区域观测任务,由EnduroSat提供卫星平台,搭载高光谱传感器,于2024年成功发射入轨。该卫星聚焦巴尔干地区对地观测需求,配合星座内多光谱、高光谱载荷组网,可为区域环境监测、农业估产、灾害评估、资源调查提供连续观测数据,填补了中东欧区域高分辨率遥感数据缺口,推动了欧洲区域空间观测能力建设,是保加利亚参与欧洲空间合作的重要成果。
(BG)
| 数据来源 | 国际轨道数据 |
| 星历时间: | 2026-09-05T14:17:34+0800 11小时前 查看轨道信息 |
| 半长轴: | 6881.621km |
| 偏心率: | 0.0005013 |
| 轨道倾角: | 97.395° |
| 近地点辐角 | 82.493° |
| 升交点赤经 | 144.619° |
| 平近点角 | 277.688° |
| 近地点: | 500.034km |
| 远地点: | 506.934km |
| 周期: | 94.688分钟 |
| 每日圈数: | 15.207811 |
| 事件ID | 空间交会对象 | 最接近时刻(TCA) | 交会距离 | 交会风险概率(CRP) | 交会风险指数(CRI) | 操作 |
|---|---|---|---|---|---|---|
| CDM_260906-201506-674106-902423 |
BLACK KITE-1
(66741)
BALKAN-2
(69024) | 2026-09-06T 20:15:17+0000 |
1.656 km
极远距离 | 4.956218E-6 低风险 | 0.49 | |
| CDM_260907-133706-671706-902422 |
FLOCK 4H 14
(66717)
BALKAN-2
(69024) | 2026-09-07T 13:37:22+0000 |
1.723 km
极远距离 | 4.391485E-6 低风险 | 0.48 | |
| CDM_260906-184006-674106-902423 |
BLACK KITE-1
(66741)
BALKAN-2
(69024) | 2026-09-06T 18:40:34+0000 |
1.841 km
极远距离 | 3.623328E-6 低风险 | 0.46 | |
| CDM_260906-115606-900406-902421 |
GEN1A-1
(69004)
BALKAN-2
(69024) | 2026-09-06T 11:56:24+0000 |
2.509 km
极远距离 | 2.664112E-7 极低风险 | 0.24 | |
| CDM_260906-110406-900406-902422 |
GEN1A-1
(69004)
BALKAN-2
(69024) | 2026-09-06T 11:04:54+0000 |
2.910 km
极远距离 | 2.276502E-7 极低风险 | 0.22 |